Tracking 18980 objects as of 21-Feb-2018
HD Live streaming from Space Station
objects crossing your sky now

AVUM DEB(ADAPTOR)

Track AVUM DEB(ADAPTOR) now!
10-day predictions


NORAD ID: 42902
Int'l Code: 2017-044C
Perigee: 433.0 km
Apogee: 442.9 km
Inclination: 97.2 °
Period: 93.2 minutes
Semi major axis: 6808 km
RCS: Unknown
Launch date: August 2, 2017
Source: European Space Agency (ESA)
Launch site: FRENCH GUIANA (FRGUI)

Note: This is SATELLITE DEBRIS
aabbcc
Your satellite tracking list
Your tracking list is empty




NASA's NSSDC Master Catalog

Two Line Element Set (TLE):
1 42902U 17044C   18051.68897463 +.00011573 +00000-0 +24555-3 0  9990
2 42902 097.1929 128.8018 0007267 326.9117 033.1681 15.45178952031244
Source of the keplerian elements: AFSPC